Location: Alpha Ridge Park
(39.3209°N, 76.9128°W)
Time: 18:02:32
(UTC-05:00)

BlueWalker 3 - Visible Passes

Search period start: 08 December 2023 00:00
Search period end: 18 December 2023 00:00
Orbit: 490 x 503 km, 53.2° (Epoch: 08 December)

Date Brightness Start Highest point End Pass type
(mag) Time Alt. Az. Time Alt. Az. Time Alt. Az.
08 Dec 4.5 04:47:10 15° SSE 04:47:10 15° SSE 04:47:54 10° SSE visible
11 Dec 4.2 18:54:42 10° S 18:55:43 16° S 18:55:43 16° S visible
12 Dec 3.4 18:31:58 10° S 18:34:26 25° SSE 18:34:26 25° SSE visible
13 Dec 3.0 18:09:15 10° S 18:12:33 27° SE 18:13:04 26° ESE visible
13 Dec 5.1 19:47:10 10° WSW 19:47:38 13° W 19:47:38 13° W visible
14 Dec 3.1 17:46:31 10° S 17:49:47 27° SE 17:51:37 19° E visible
14 Dec 4.2 19:24:24 10° WSW 19:26:11 23° W 19:26:11 23° W visible
15 Dec 3.2 17:23:46 10° S 17:27:01 26° SE 17:30:04 11° ENE visible
15 Dec 3.3 19:01:36 10° WSW 19:04:38 36° WNW 19:04:38 36° WNW visible
16 Dec 2.8 18:38:49 10° WSW 18:42:28 39° NW 18:43:01 37° NNW visible
17 Dec 2.9 18:16:01 10° WSW 18:19:40 40° NW 18:21:19 26° NNE visible
